HAZ8068 ZUUU-ZSHC

Flight info

Callsign HAZ8068
Flight time N/A
Altitude 35100
Route ATVAX W234 P611 H134 P448 H35 DYG W138 RUKLI H166 P645 H160 P473 H26 TXN G204 OREXA
Aircraft A320/M-SDE3FGHIRWY/LB1

Departure

Time 2026-04-27 09:28
Airport Chengdu Shuangliu International Airport (ZUUU)

Arrival

Time N/A
Airport Hangzhou Xiaoshan International Airport (ZSHC)
Time Latitude Longitude Altitude Speed Heading
2026-04-27 09:12 30.56923 103.95030 1646 ft 0 kts 21°
2026-04-27 09:21 30.56915 103.95027 1646 ft 3 kts 19°
2026-04-27 09:21 30.56895 103.95020 1646 ft 3 kts
2026-04-27 09:21 30.56873 103.95017 1646 ft 3 kts 356°
2026-04-27 09:21 30.56853 103.95021 1646 ft 3 kts 333°
2026-04-27 09:22 30.56837 103.95035 1646 ft 3 kts 297°
2026-04-27 09:22 30.56835 103.95040 1646 ft 0 kts 292°
2026-04-27 09:24 30.56836 103.95036 1646 ft 2 kts 293°
2026-04-27 09:24 30.56840 103.95028 1646 ft 0 kts 294°
2026-04-27 09:24 30.56850 103.95001 1646 ft 10 kts 294°
2026-04-27 09:24 30.56892 103.94882 1646 ft 21 kts 292°
2026-04-27 09:25 30.56949 103.94716 1646 ft 22 kts 292°
2026-04-27 09:25 30.56950 103.94598 1646 ft 8 kts 197°
2026-04-27 09:25 30.56881 103.94574 1646 ft 17 kts 201°
2026-04-27 09:25 30.56761 103.94518 1646 ft 20 kts 201°
2026-04-27 09:26 30.56609 103.94447 1646 ft 25 kts 202°
2026-04-27 09:26 30.56444 103.94370 1646 ft 26 kts 202°
2026-04-27 09:26 30.56302 103.94303 1646 ft 14 kts 204°
2026-04-27 09:26 30.56291 103.94208 1646 ft 14 kts 290°
2026-04-27 09:27 30.56335 103.94081 1646 ft 18 kts 290°
2026-04-27 09:27 30.56398 103.94023 1646 ft 10 kts
2026-04-27 09:27 30.56423 103.94033 1646 ft 0 kts 21°
2026-04-27 09:27 30.56449 103.94045 1646 ft 22 kts 21°
2026-04-27 09:28 30.56844 103.94231 1646 ft 97 kts 22°
2026-04-27 09:28 30.57656 103.94612 1646 ft 153 kts 22°
2026-04-27 09:28 30.58765 103.95143 1844 ft 183 kts 22°
2026-04-27 09:28 30.59962 103.95707 2622 ft 186 kts 20°
2026-04-27 09:29 30.61151 103.96255 3451 ft 183 kts 21°
2026-04-27 09:29 30.62375 103.96820 3841 ft 199 kts 22°
2026-04-27 09:29 30.63732 103.97450 4100 ft 222 kts 22°
2026-04-27 09:29 30.65247 103.98157 4468 ft 247 kts 22°
2026-04-27 09:30 30.66887 103.98922 4879 ft 256 kts 23°
2026-04-27 09:30 30.68466 103.99899 5556 ft 259 kts 41°
2026-04-27 09:30 30.69618 104.01485 6527 ft 257 kts 56°
2026-04-27 09:30 30.70521 104.03283 7379 ft 259 kts 60°
2026-04-27 09:31 30.71355 104.05154 8209 ft 262 kts 62°
2026-04-27 09:31 30.72198 104.07050 9012 ft 266 kts 61°
2026-04-27 09:31 30.73080 104.08960 9845 ft 270 kts 60°
2026-04-27 09:31 30.74013 104.10899 10429 ft 284 kts 59°
2026-04-27 09:32 30.75044 104.12971 10653 ft 307 kts 58°
2026-04-27 09:32 30.75994 104.15261 10817 ft 332 kts 71°
2026-04-27 09:32 30.76328 104.18005 11032 ft 355 kts 90°
2026-04-27 09:32 30.75788 104.20846 11567 ft 368 kts 110°
2026-04-27 09:33 30.74372 104.23365 12194 ft 380 kts 132°
2026-04-27 09:33 30.72222 104.25196 12815 ft 389 kts 149°
2026-04-27 09:33 30.69850 104.26740 13435 ft 393 kts 150°
2026-04-27 09:33 30.67438 104.28274 14046 ft 397 kts 151°
2026-04-27 09:34 30.64992 104.29816 14542 ft 403 kts 152°
2026-04-27 09:34 30.62519 104.31377 15092 ft 406 kts 152°
2026-04-27 09:34 30.60037 104.32955 15653 ft 408 kts 152°
2026-04-27 09:34 30.57537 104.34551 16182 ft 411 kts 153°
2026-04-27 09:35 30.55025 104.36159 16692 ft 414 kts 153°
2026-04-27 09:35 30.52496 104.37783 17192 ft 417 kts 153°
2026-04-27 09:35 30.49950 104.39418 17673 ft 420 kts 154°
2026-04-27 09:35 30.47380 104.41065 18166 ft 423 kts 154°
2026-04-27 09:36 30.44790 104.42722 18577 ft 427 kts 154°
2026-04-27 09:36 30.42185 104.44387 19013 ft 429 kts 154°
2026-04-27 09:36 30.39565 104.46056 19422 ft 431 kts 154°
2026-04-27 09:36 30.36927 104.47733 19830 ft 433 kts 154°
2026-04-27 09:37 30.34278 104.49417 20235 ft 436 kts 154°
2026-04-27 09:37 30.31615 104.51112 20621 ft 438 kts 154°
2026-04-27 09:37 30.28939 104.52818 21021 ft 440 kts 154°
2026-04-27 09:37 30.26252 104.54528 21408 ft 442 kts 154°
2026-04-27 09:38 30.23545 104.56248 21793 ft 445 kts 154°
2026-04-27 09:38 30.20828 104.57969 22161 ft 447 kts 154°
2026-04-27 09:38 30.18095 104.59702 22528 ft 449 kts 154°
2026-04-27 09:38 30.15348 104.61443 22885 ft 451 kts 154°
2026-04-27 09:39 30.12591 104.63187 23219 ft 454 kts 154°
2026-04-27 09:39 30.09812 104.64945 23524 ft 456 kts 154°
2026-04-27 09:39 30.07023 104.66710 23801 ft 459 kts 154°
2026-04-27 09:39 30.04218 104.68486 24080 ft 461 kts 154°
2026-04-27 09:40 30.01399 104.70269 24357 ft 463 kts 154°
2026-04-27 09:40 29.98566 104.72058 24633 ft 465 kts 154°
2026-04-27 09:40 29.95724 104.73857 24901 ft 467 kts 154°
2026-04-27 09:40 29.92866 104.75666 25160 ft 469 kts 154°
2026-04-27 09:41 29.89995 104.77480 25416 ft 471 kts 154°
2026-04-27 09:41 29.87112 104.79296 25668 ft 473 kts 154°
2026-04-27 09:41 29.84216 104.81117 25922 ft 475 kts 154°
2026-04-27 09:41 29.81342 104.82920 26155 ft 478 kts 154°
2026-04-27 09:42 29.78419 104.84753 26391 ft 480 kts 154°
2026-04-27 09:42 29.75484 104.86598 26622 ft 482 kts 154°
2026-04-27 09:42 29.72538 104.88449 26870 ft 484 kts 154°
2026-04-27 09:42 29.69580 104.90307 27146 ft 484 kts 154°
2026-04-27 09:43 29.66622 104.92161 27503 ft 484 kts 154°
2026-04-27 09:43 29.63667 104.94011 27859 ft 483 kts 154°
2026-04-27 09:43 29.60720 104.95856 28227 ft 482 kts 154°
2026-04-27 09:43 29.57774 104.97699 28579 ft 482 kts 154°
2026-04-27 09:44 29.54829 104.99538 28922 ft 482 kts 154°
2026-04-27 09:44 29.51886 105.01376 29236 ft 482 kts 155°
2026-04-27 09:44 29.48836 105.02933 29559 ft 478 kts 163°
2026-04-27 09:44 29.45682 105.04151 29898 ft 478 kts 164°
2026-04-27 09:45 29.42533 105.05358 30206 ft 477 kts 164°
2026-04-27 09:45 29.39384 105.06566 30516 ft 477 kts 165°
2026-04-27 09:45 29.36240 105.07772 30827 ft 476 kts 165°
2026-04-27 09:45 29.33101 105.08977 31143 ft 475 kts 165°
2026-04-27 09:46 29.29965 105.10181 31464 ft 475 kts 165°
2026-04-27 09:46 29.26839 105.11381 31783 ft 474 kts 165°
2026-04-27 09:46 29.23715 105.12583 32094 ft 473 kts 165°
2026-04-27 09:46 29.20602 105.13784 32430 ft 472 kts 165°
2026-04-27 09:47 29.17492 105.14980 32757 ft 471 kts 165°
2026-04-27 09:47 29.15437 105.15768 32974 ft 470 kts 165°
2026-04-27 09:47 29.11290 105.17355 33420 ft 469 kts 166°
2026-04-27 09:47 29.09240 105.18138 33638 ft 469 kts 166°
2026-04-27 09:48 29.05110 105.19711 34056 ft 467 kts 166°
2026-04-27 09:48 29.03067 105.20485 34230 ft 467 kts 166°
2026-04-27 09:48 28.99981 105.21653 34493 ft 467 kts 166°
2026-04-27 09:48 28.96897 105.22820 34745 ft 467 kts 166°
2026-04-27 09:49 28.93816 105.23991 34928 ft 467 kts 166°
2026-04-27 09:49 28.90806 105.25463 34999 ft 478 kts 153°
2026-04-27 09:49 28.88122 105.27750 35003 ft 488 kts 139°
2026-04-27 09:49 28.85954 105.30754 35000 ft 494 kts 124°
2026-04-27 09:50 28.84430 105.34278 34999 ft 498 kts 110°
2026-04-27 09:50 28.83639 105.38130 34995 ft 501 kts 96°
2026-04-27 09:50 28.83558 105.42099 34995 ft 502 kts 89°
2026-04-27 09:51 28.83687 105.50060 34996 ft 502 kts 89°
2026-04-27 09:51 28.83832 105.58028 34999 ft 502 kts 89°
2026-04-27 09:52 28.83963 105.65993 34996 ft 502 kts 89°
2026-04-27 09:52 28.84082 105.73957 35004 ft 502 kts 89°
2026-04-27 09:53 28.84205 105.81915 35007 ft 502 kts 89°
2026-04-27 09:53 28.84312 105.89866 35005 ft 501 kts 89°
2026-04-27 09:54 28.84416 105.97816 35011 ft 501 kts 89°
2026-04-27 09:54 28.84524 106.05762 35008 ft 501 kts 89°
2026-04-27 09:55 28.84632 106.13709 35013 ft 501 kts 89°
2026-04-27 09:55 28.84164 106.25530 35010 ft 500 kts 103°
2026-04-27 09:56 28.82267 106.33148 35005 ft 500 kts 107°
2026-04-27 09:56 28.80312 106.40754 35003 ft 500 kts 107°
2026-04-27 09:57 28.78351 106.48369 35004 ft 501 kts 107°
2026-04-27 09:57 28.76382 106.55980 35010 ft 501 kts 107°
2026-04-27 09:58 28.74407 106.63591 35016 ft 501 kts 107°
2026-04-27 09:58 28.72429 106.71203 35010 ft 501 kts 107°
2026-04-27 09:59 28.70448 106.78815 35016 ft 501 kts 107°
2026-04-27 09:59 28.68463 106.86431 35019 ft 501 kts 107°
2026-04-27 10:00 28.66471 106.94038 35019 ft 501 kts 107°
2026-04-27 10:00 28.64483 107.01640 35018 ft 501 kts 107°
2026-04-27 10:01 28.62498 107.09188 35013 ft 501 kts 107°
2026-04-27 10:01 28.61325 107.16974 35012 ft 500 kts 90°
2026-04-27 10:02 28.62174 107.24781 35002 ft 497 kts 74°
2026-04-27 10:02 28.63823 107.32421 35000 ft 497 kts 74°
2026-04-27 10:03 28.65454 107.40073 34985 ft 498 kts 75°
2026-04-27 10:03 28.67074 107.47736 34981 ft 498 kts 75°
2026-04-27 10:04 28.68701 107.55396 34993 ft 498 kts 75°
2026-04-27 10:04 28.70328 107.63065 34990 ft 498 kts 75°
2026-04-27 10:05 28.71948 107.70729 34987 ft 498 kts 75°
2026-04-27 10:05 28.73564 107.78396 34986 ft 498 kts 75°
2026-04-27 10:06 28.75163 107.86062 34987 ft 497 kts 75°
2026-04-27 10:06 28.76761 107.93720 34983 ft 497 kts 75°
2026-04-27 10:07 28.78360 108.01376 34980 ft 496 kts 75°
2026-04-27 10:07 28.79949 108.09033 34980 ft 496 kts 75°
2026-04-27 10:08 28.81529 108.16685 34978 ft 496 kts 75°
2026-04-27 10:08 28.83115 108.24341 34978 ft 496 kts 75°
2026-04-27 10:09 28.84683 108.31940 34993 ft 496 kts 75°
2026-04-27 10:09 28.86252 108.39605 34980 ft 496 kts 75°
2026-04-27 10:10 28.87829 108.47321 34985 ft 496 kts 75°
2026-04-27 10:10 28.89395 108.54973 34988 ft 495 kts 75°
2026-04-27 10:11 28.90939 108.62563 34992 ft 494 kts 75°
2026-04-27 10:11 28.92492 108.70254 34989 ft 494 kts 75°
2026-04-27 10:12 28.94024 108.77839 34995 ft 493 kts 75°
2026-04-27 10:12 28.95563 108.85472 34997 ft 494 kts 76°
2026-04-27 10:13 28.97097 108.93114 34994 ft 494 kts 76°
2026-04-27 10:13 28.98628 109.00752 34996 ft 494 kts 76°
2026-04-27 10:14 29.00157 109.08395 34993 ft 494 kts 76°
2026-04-27 10:14 29.01680 109.16044 35003 ft 494 kts 76°
2026-04-27 10:15 29.03189 109.23694 35006 ft 493 kts 76°
2026-04-27 10:15 29.05166 109.31161 35006 ft 490 kts 63°
2026-04-27 10:16 29.08773 109.37688 34997 ft 485 kts 51°
2026-04-27 10:16 29.12786 109.43901 34996 ft 486 kts 51°
2026-04-27 10:17 29.16775 109.50136 35003 ft 485 kts 52°
2026-04-27 10:17 29.20715 109.56342 35013 ft 485 kts 54°
2026-04-27 10:18 29.22359 109.59720 35016 ft 488 kts 65°
2026-04-27 10:18 29.23460 109.63390 35014 ft 490 kts 76°
2026-04-27 10:18 29.23946 109.71136 34998 ft 490 kts 97°
2026-04-27 10:19 29.22523 109.78757 34992 ft 490 kts 104°
2026-04-27 10:19 29.20930 109.86337 35003 ft 490 kts 104°
2026-04-27 10:20 29.19338 109.93915 35008 ft 489 kts 104°
2026-04-27 10:20 29.17748 110.01485 35009 ft 489 kts 104°
2026-04-27 10:21 29.16154 110.09054 35012 ft 489 kts 104°
2026-04-27 10:21 29.14549 110.16609 35004 ft 489 kts 105°
2026-04-27 10:22 29.12930 110.24165 35003 ft 489 kts 105°
2026-04-27 10:22 29.11313 110.31726 35002 ft 489 kts 105°
2026-04-27 10:23 29.09556 110.39232 35005 ft 488 kts 112°
2026-04-27 10:23 29.06386 110.46025 34997 ft 484 kts 126°
2026-04-27 10:24 29.02735 110.52476 35011 ft 484 kts 125°
2026-04-27 10:24 28.99089 110.58936 35011 ft 483 kts 125°
2026-04-27 10:25 28.95444 110.65383 35012 ft 483 kts 125°
2026-04-27 10:25 28.91814 110.71781 35013 ft 483 kts 125°
2026-04-27 10:26 28.88161 110.78212 35011 ft 483 kts 125°
2026-04-27 10:26 28.84503 110.84640 35000 ft 483 kts 125°
2026-04-27 10:27 28.80843 110.91080 34990 ft 485 kts 125°
2026-04-27 10:27 28.77164 110.97523 34995 ft 485 kts 125°
2026-04-27 10:28 28.73476 111.03966 34994 ft 485 kts 125°
2026-04-27 10:28 28.69786 111.10414 34994 ft 486 kts 125°
2026-04-27 10:29 28.66094 111.16859 34985 ft 486 kts 125°
2026-04-27 10:29 28.62413 111.23331 34984 ft 487 kts 125°
2026-04-27 10:30 28.58754 111.29835 34990 ft 488 kts 124°
2026-04-27 10:30 28.55091 111.36339 34990 ft 488 kts 125°
2026-04-27 10:31 28.51413 111.42840 34993 ft 488 kts 125°
2026-04-27 10:31 28.47731 111.49325 34994 ft 488 kts 125°
2026-04-27 10:32 28.44039 111.55807 34996 ft 488 kts 125°
2026-04-27 10:32 28.40350 111.62283 34998 ft 488 kts 125°
2026-04-27 10:33 28.36652 111.68756 34990 ft 489 kts 125°
2026-04-27 10:33 28.32955 111.75233 34992 ft 489 kts 125°